Location: Fort Worth, Tx
(32.7431°N, 97.3695°W)
Time: 23:00:27
(UTC-04:00)

Transit 4A - Pass Details

Date: 29 February 2024
Orbit: 863 x 978 km, 66.8° (Epoch: 17 April)

Event Time Altitude Azimuth Distance (km) Brightness Sun altitude
Rises 02:53:12 0° 248° (WSW) 3,622 - -60.0°
Reaches altitude 10° 02:56:39 10° 266° (W) 2,659 - -59.6°
Maximum altitude 03:00:45 18° 308° (NW) 2,106 - -59.0°
Drops below altitude 10° 03:04:49 10° 351° (N) 2,611 - -58.5°
Sets 03:08:11 0° 10° (N) 3,532 - -58.0°
